sat.trackr.live / text

‹ back to catalog

STARLINK-32189

NORAD 60317 · 2024-133S

PAYLOAD ACTIVE UNKNOWN

§ Identity

Operator
Country
US
Launch date
2024-07-28
Launch site
AFWTR
Launch vehicle
Mass (kg)
RCS (m²)

Purposes: comms

External: N2YO · Heavens-Above · Gunter

§ Orbital elements

Epoch: 2026-05-25T03:05:21.126336Z

Period
94.11 min
Inclination
53.1606°
Eccentricity
0.0001026
Mean motion
15.30197831 rev/d
Perigee alt
474.5 km
Apogee alt
475.9 km
Semi-major
6,853.4 km
B*
1.5107e-5
RAAN
301.9979°
Arg perigee
76.8846°
Mean anomaly
283.2269°
Rev number
10,343

§ Raw data

STARLINK-321891 60317U 24133S   26145.12871674  .00000088  00000+0  15107-4 0  99972 60317  53.1606 301.9979 0001026  76.8846 283.2269 15.30197831103437

JSON: /api/v1/satellites/60317 · /tle

For live sub-satellite position, see the globe view (requires WebGL).

§ Visibility from observer

Set your observer location to see the next 7 days of passes ≥ 10°. The values pass through the URL so the page stays shareable.

No JS? Fill the form by hand. The geolocation button needs JavaScript.